Regional Weather Roundup
Issued by NWS

Home | Current Version | Previous Version | Graphics & Text | Print | Product List | Glossary On
Versions: 1 2 3 4 5 6 7 8 9 10 11 12 13 14 15 16 17 18 19 20 21 22 23 24 25 26 27 28 29 30 31 32 33 34 35 36 37 38 39 40 41 42 43 44 45 46 47 48 49 50
000
ASUS43 KOAX 251302
RWRNE

WEATHER ROUNDUP FOR NEBRASKA
NATIONAL WEATHER SERVICE OMAHA NE
800 AM CDT THU AUG 25 2016

NOTES: SATELLITE DATA IS BEING USED TO AUGMENT CLOUD COVER ABOVE
       12000 FEET.
       "FAIR" INDICATES FEW OR NO CLOUDS BELOW 12,000 FEET WITH NO
       SIGNIFICANT WEATHER AND/OR OBSTRUCTIONS TO VISIBILITY.

  * THESE STATIONS DO NOT REPORT WEATHER SUCH AS RAIN...SNOW OR FOG.

NEZ001>004-019>022-054>056-251400-
NEBRASKA PANHANDLE

CITY           SKY/WX    TMP DP  RH WIND       PRES   REMARKS
SCOTTSBLUFF    CLOUDY    54  48  80 E6        30.28R
ALLIANCE       CLOUDY    51  46  83 NE10      30.27R
CHADRON        CLOUDY    53  48  83 N3        30.29R
KIMBALL        CLEAR     45  44  98 NW8       30.27S
SIDNEY         CLEAR     45  41  86 N8        30.26R
$$

NEZ057>060-069>072-079>082-251400-
SOUTHWEST NEBRASKA

CITY           SKY/WX    TMP DP  RH WIND       PRES   REMARKS
NORTH PLATTE   PTCLDY    56  50  80 N12G18    30.21R
IMPERIAL       PTCLDY    52  44  74 NW3       30.21S
LEXINGTON      CLOUDY    56  54  91 CALM      30.17R
MCCOOK         PTCLDY    56  51  84 W3        30.18R
OGALLALA       CLEAR     47  44  90 CALM      30.23R
$$

NEZ005>010-023>029-035>040-094-251400-
NORTH CENTRAL NEBRASKA

CITY           SKY/WX    TMP DP  RH WIND       PRES   REMARKS
VALENTINE      PTSUNNY   53  44  71 NW5       30.24R
AINSWORTH      MOSUNNY   52  47  85 NW6       30.22S
BROKEN BOW     CLOUDY    56  52  86 N13       30.18R
O`NEILL        CLOUDY    57  51  80 N7        30.18S
ORD            CLOUDY    57  53  86 NW7       30.15S
THEDFORD       MOCLDY    53  47  79 CALM      30.25R
$$

NEZ041-046>049-061>064-073>077-083>087-251400-
SOUTH CENTRAL NEBRASKA

CITY           SKY/WX    TMP DP  RH WIND       PRES   REMARKS
GRAND ISLAND   PTSUNNY   60  56  86 NW6       30.14S
AURORA         CLOUDY    59  59  97 CALM      30.13S
HASTINGS       CLOUDY    59  55  87 CALM      30.14F
HEBRON         LGT RAIN  60  59  96 NE6       30.11F
HOLDREGE       CLOUDY    58  55  90 CALM      30.16R
KEARNEY *      CLOUDY    61  54  77 NW6       30.15R
YORK           CLOUDY    59  57  94 CALM      30.13S
$$

NEZ011>018-030>034-042>045-251400-
NORTHEAST NEBRASKA

CITY           SKY/WX    TMP DP  RH WIND       PRES   REMARKS
NORFOLK        CLOUDY    58  55  90 W5        30.13R
ALBION         CLOUDY    58  54  86 NW5       30.14S
BLAIR          CLOUDY    61  58  90 N6        30.11R
FREMONT        CLOUDY    57  56  96 W5        30.13R
TEKAMAH        CLOUDY    58  56  93 CALM      30.11R
WAYNE          CLOUDY    58  56  95 CALM      30.13R
$$

NEZ050>053-065>068-078-088>093-251400-
SOUTHEAST NEBRASKA

CITY           SKY/WX    TMP DP  RH WIND       PRES   REMARKS
LINCOLN        CLOUDY    59  57  93 CALM      30.13R
OMAHA EPPLEY   CLOUDY    60  56  86 N5        30.11R
BEATRICE       RAIN      60  59  96 W5        30.15R
FALLS CITY     RAIN      66  64  93 N6        30.08R
NEBRASKA CITY  CLOUDY    62  62 100 N7        30.11R
PLATTSMOUTH    CLOUDY    61  60  98 NW3       30.11R
$$

NEZ044-045-051>053-067-251400-
OMAHA AREA

CITY           SKY/WX    TMP DP  RH WIND       PRES   REMARKS
OMAHA EPPLEY   CLOUDY    60  56  86 N5        30.11R
BLAIR          CLOUDY    61  58  90 N6        30.11R
FREMONT        CLOUDY    57  56  96 W5        30.13R
MILLARD        CLOUDY    60  57  90 CALM      30.11R
OFFUTT AFB     CLOUDY    61  61 100 NW5       30.10R
PLATTSMOUTH    CLOUDY    61  60  98 NW3       30.11R
WAHOO          FAIR      58  56  92 CALM      30.12R
$$




USA.gov is the U.S. government's official web portal to all federal, state and local government web resources and services.